www.pogodaiklimat.ru
Время
(UTC), дата
22 15.11
23 15.11
00 16.11
01 16.11
02 16.11
03 16.11
04 16.11
05 16.11
06 16.11
07 16.11
08 16.11
09 16.11
10 16.11
11 16.11
12 16.11
13 16.11
14 16.11
15 16.11
16 16.11
17 16.11
18 16.11
19 16.11
20 16.11
21 16.11
22 16.11
23 16.11
00 17.11
01 17.11
02 17.11
03 17.11
04 17.11
05 17.11
06 17.11
07 17.11
08 17.11
09 17.11
10 17.11
11 17.11
12 17.11
13 17.11
14 17.11
15 17.11
16 17.11
17 17.11
18 17.11
19 17.11
20 17.11
21 17.11
22 17.11
23 17.11
00 18.11
01 18.11
02 18.11
03 18.11
04 18.11
05 18.11
06 18.11
07 18.11
08 18.11
09 18.11
10 18.11
11 18.11
12 18.11
13 18.11
14 18.11
15 18.11
16 18.11
17 18.11
18 18.11
19 18.11
20 18.11
21 18.11
22 18.11
23 18.11
00 19.11
01 19.11
02 19.11
03 19.11
04 19.11
05 19.11
06 19.11
07 19.11
08 19.11
09 19.11
10 19.11
11 19.11
12 19.11
13 19.11
14 19.11
15 19.11
16 19.11
17 19.11
18 19.11
19 19.11
20 19.11
21 19.11
22 19.11
23 19.11
00 20.11
01 20.11
02 20.11
03 20.11
04 20.11
05 20.11
06 20.11
07 20.11
08 20.11
09 20.11
10 20.11
11 20.11
12 20.11
13 20.11
14 20.11
15 20.11
16 20.11
17 20.11
18 20.11
19 20.11
20 20.11
21 20.11
22 20.11
23 20.11
00 21.11
01 21.11
02 21.11
03 21.11
04 21.11
05 21.11
06 21.11
07 21.11
08 21.11
09 21.11
10 21.11
11 21.11
12 21.11
13 21.11
14 21.11
15 21.11
16 21.11
17 21.11
18 21.11
19 21.11
20 21.11
21 21.11
22 21.11
23 21.11
00 22.11
01 22.11
02 22.11
03 22.11
04 22.11
05 22.11
06 22.11
07 22.11
08 22.11
09 22.11
10 22.11
11 22.11
12 22.11
13 22.11
15 22.11
16 22.11
17 22.11
18 22.11
19 22.11
20 22.11
Ветер
(напр.,м/с)
Видим. Явления Облачность Т
(С)
Тd
(С)
f
(%)
Тe
(С)
Тes
(С)
Комфортность P
(гПа)
Po
(гПа)
Тmin
(С)
Tmax
(С)
R
(мм)
R24
(мм)
S
(см)
В 3 30 км 8/1 300 м
[Sc]
+0.9 +0.2 95 -4 -4 по сезону 1005.4 959.7
СВ 2
{3}
30 км 8/3 450 м
[Sc Ci fib]
+1.4 +0.2 92 -2 -2 тепло 1005.9 960.3
В 2
{5}
30 км 8/0
[Ci fib]
+1.4 +0.1 91 -2 -2 прохладно 1005.7 960.1
В 2
{3}
35 км 10/10
[]
+0.3 -0.6 94 -3 -3 по сезону 1006.0 960.2
СВ 2 26 км ясно +0.8 -0.2 93 -3 -3 по сезону 1006.5 960.7
СВ 1
{3}
20 км 4/0
[Ci fib]
+1.3 -0.2 90 -1 -1 по сезону 1006.2 960.5
СВ 2 10 км 3/0
[]
+0.9 -0.4 91 -3 -3 по сезону 1006.4 960.7
СВ 3 10 км 3/0
[]
-0.1 -0.8 95 -5 -5 по сезону 1007.1 961.2
СВ 2
{3}
10 км 3/0
[Ci sp]
+0.4 -0.6 93 -3 -3 прохладно 1007.4 961.5 -1.0
В 2 7000 м 8/0
[]
+0.2 -0.5 95 -4 -4 по сезону 1008.3 962.4
Ю 2 6000 м 9/0
[]
+0.3 -0.1 97 -4 -3 по сезону 1009.3 963.3
ЮВ 2
{3}
5000 м 9/0
[Ac und Ci fib]
+0.6 +0.2 97 -3 -3 прохладно 1010.0 964.1
Ю 3 4500 м дымка 8/0 2000 м
[]
+1.4 +0.7 95 -3 -2 по сезону 1010.2 964.4
ЮВ 3 7000 м 8/3 100 м
[St]
+2.7 +1.7 93 -2 -1 по сезону 1010.4 964.8
Ю 3
{5}
7000 м 8/3 150 м
[St Ac und Ci fib]
+2.6 +1.1 90 -2 -1 прохладно 1010.3 964.7
ЮВ 2 10 км 8/1 300 м
[Cu hum]
+3.3 +1.7 89 0 +1 по сезону 1010.2 964.7
ЮВ 2 12 км 8/1 600 м
[Cu hum]
+4.2 +1.2 81 +2 +2 тепло 1010.2 964.8
Ю 2
{4}
15 км 6/1 600 м
[Cu hum Ac trans Ci fib]
+5.0 +1.3 77 +3 +3 по сезону 1010.1 964.9
15 км 4/0
[]
+4.0 +1.6 84 1010.4 965.0
ЮВ 3 15 км 4/0
[]
+3.2 +1.4 88 -1 -1 по сезону 1011.3 965.7
В 2
{4}
15 км 3/3 700 м
[Cu hum Ci fib]
+3.1 +1.6 90 0 0 по сезону 1011.6 966.0 +5.1
ЮВ 3 10 км 1/0
[]
+1.9 +1.0 94 -3 -3 по сезону 1012.0 966.2
ЮВ 2 10 км 1/0
[]
+2.3 +1.4 94 -1 -1 по сезону 1012.6 966.8
ЮВ 2
{4}
10 км 1/0
[Ci fib]
+2.4 +1.5 94 -1 -1 по сезону 1012.5 966.7
СВ 1 8000 м 1/0
[]
+0.3 -0.4 95 -2 -2 по сезону 1012.6 966.5
В 2 8000 м ясно +1.0 +0.4 96 -3 -3 по сезону 1012.9 966.9
СВ 4
{4}
5000 м ясно +0.7 +0.3 97 -5 -5 холодно 1012.9 966.8
СВ 3 1700 м в посл. час туман ясно +0.5 +0.2 98 -4 -4 по сезону 1012.9 966.8
СВ 4 2900 м дымка {туман} ясно +0.7 -0.2 94 -5 -5 по сезону 1012.5 966.5
СВ 4
{5}
4000 м дымка ясно +0.1 -0.6 95 -6 -6 холодно 1012.2 966.1
СВ 4 4000 м дымка 6/0
[]
+0.8 -0.2 93 -5 -5 по сезону 1011.5 965.5
СВ 4 6000 м 9/0
[]
+0.5 -0.5 93 -5 -5 по сезону 1012.1 966.0
СВ 4
{5}
6000 м 9/0
[Ci fib]
-0.2 -1.2 93 -6 -6 холодно 1012.1 965.9 -0.7
СВ 5 5000 м дымка 9/0
[]
+0.7 -0.3 93 -5 -5 по сезону 1011.6 965.6
СВ 4 5000 м дымка 9/0
[]
+0.8 -0.2 93 -5 -5 по сезону 1011.3 965.3
СВ 5
{7}
1800 м дымка {туман} 9/4 30 м
[St Ci fib]
+0.4 -0.5 94 -6 -6 холодно 1010.7 964.7
СВ 4 4500 м дымка 9/1 <50 м
[St]
+2.3 +0.8 90 -3 -2 по сезону 1010.3 964.6
СВ 6 4500 м дымка 9/3 50 м
[St]
+2.8 +1.3 90 -3 -3 по сезону 1009.2 963.7
СВ 6
{10}
8000 м {туман} 9/0
[Ac und Ci fib]
+3.7 +1.6 86 -2 -1 прохладно 1008.8 963.4
С 5 18 км 9/1 300 м
[Cu hum]
+3.9 +1.5 84 -1 -1 по сезону 1008.5 963.2
С 7 20 км 10/0
[]
+4.9 +0.7 74 -0 -0 тепло 1007.3 962.2
С 6
{10}
25 км 10/3 630 м
[Cu hum Ac und Ci fib]
+5.3 +0.3 70 +1 +1 по сезону 1007.2 962.1
С 5 25 км слаб. дождь 10/4 600 м
[Cu Sc]
+5.2 +0.6 72 +1 +1 по сезону 1006.9 961.8
С 5 15 км слаб. дождь 10/4 300 м
[Cu Sc]
+4.3 +1.0 79 -1 -1 по сезону 1006.8 961.6
С 7
{12}
12 км слаб. дождь 10/9 1200 м
[Cu Sc]
+4.0 +2.7 91 -2 -2 прохладно 1006.5 961.3 +5.4 0.1
С 5 8000 м слаб. дождь 9/3 600 м
[Cu Sc]
+3.8 +2.8 93 -1 -1 по сезону 1006.4 961.2
С 6 8000 м дождь 10/4 300 м
[Cu Sc]
+3.3 +2.3 93 -3 -3 по сезону 1006.2 960.9
С 6
{10}
7000 м слаб. дождь 10/9 240 м
[Sc]
+3.0 +2.1 94 -3 -3 прохладно 1006.2 960.8
С 4 7000 м слаб. дождь 10/4 100 м
[Frnb]
+2.3 +1.4 94 -3 -3 по сезону 1006.4 960.9
СЗ 4 4000 м слаб. снег {дождь} 10/4 100 м
[Frnb]
+0.7 +0.1 96 -5 -5 по сезону 1006.8 961.0
СЗ 5
{10}
5000 м слаб. дождь со снегом 10/9 150 м
[Frnb]
+1.1 +0.7 97 -5 -5 прохладно 1006.4 960.7 5 4.0
СЗ 5 н/о {морось} 10/1 300 м
[]
+1.5 +0.9 96 -4 -4 по сезону 1006.4 960.8
СЗ 5
{7}
10 км 10 баллов +1.7 +1.1 96 -4 -4 по сезону 1006.4 960.8
СЗ 4
{7}
10 км слаб. дождь 10/9 150 м
[Sc]
+1.7 +1.1 96 -4 -4 прохладно 1006.3 960.7
СЗ 4
{7}
9000 м слаб. дождь 10/9 150 м
[Frnb]
+1.7 +1.1 96 -4 -4 по сезону 1006.5 960.9
СЗ 4
{6}
9000 м слаб. дождь 9/9 150 м
[Frnb]
+1.4 +1.0 97 -4 -4 по сезону 1006.9 961.2
СЗ 4
{8}
8000 м слаб. дождь 9/9 150 м
[Sc]
+1.5 +1.1 97 -4 -4 прохладно 1007.1 961.4 +0.7 6
З 4 7000 м в посл. час дождь 9/1 100 м
[Sc]
+1.9 +1.3 96 -3 -3 по сезону 1007.5 961.9
З 4 6000 м слаб. дождь 10/5 100 м
[Sc]
+1.7 +1.1 96 -4 -4 по сезону 1008.2 962.5
З 4
{8}
3200 м слаб. дождь 10/9 120 м
[Sc]
+1.1 +0.8 98 -4 -4 прохладно 1008.6 962.8
З 4 3200 м слаб. дождь 10/5 50 м
[Sc]
+1.1 +0.7 97 -4 -4 по сезону 1009.3 963.5
З 5 3000 м дождь {морось} 10/5 50 м
[Sc]
+1.0 +0.7 98 -5 -5 по сезону 1009.5 963.6
З 5
{9}
3000 м дождь {морось} 10/9 120 м
[Sc]
+1.4 +1.1 98 -5 -4 холодно 1009.3 963.5 2
З 5 3300 м дождь {морось} 10/6 100 м
[Sc]
+1.8 +1.4 97 -4 -4 по сезону 1009.5 963.8
З 5 4000 м слаб. дождь со снегом 10/6 100 м
[Sc]
+1.7 +1.1 96 -4 -4 по сезону 1010.2 964.4
З 5
{11}
5000 м слаб. дождь 10/9 120 м
[Sc]
+1.6 +1.0 96 -4 -4 прохладно 1010.8 965.0
З 5 2500 м слаб. снег {дождь} 10/6 100 м
[Sc]
+0.8 +0.4 97 -5 -5 по сезону 1011.5 965.5
З 5 1800 м слаб. снег 10/9 100 м
[St]
+0.6 +0.3 98 -6 -6 по сезону 1012.1 966.1
З 5
{11}
1500 м слаб. снег {дождь} 10/9 120 м
[St]
+0.5 +0.2 98 -6 -6 холодно 1012.6 966.5 +2.4 6 <0.5
ЮЗ 4 2800 м слаб. дождь со снегом 10/6 50 м
[St]
+0.8 +0.5 98 -5 -5 по сезону 1012.7 966.7
ЮЗ 4 3500 м слаб. дождь 10/9 100 м
[St]
+1.1 +1.0 99 -4 -4 по сезону 1013.2 967.2
ЮЗ 3
{6}
3000 м слаб. дождь 10/10 60 м
[Frnb]
+2.3 +2.2 99 -2 -2 по сезону 1013.2 967.4
ЮЗ 4 3000 м слаб. морось 10/5 <50 м
[St]
+3.4 +3.3 99 -2 -2 по сезону 1013.5 967.9
З 4 6000 м в посл. час морось 10/5 100 м
[St]
+4.1 +4.0 99 -1 -1 тепло 1013.9 968.4
З 4
{9}
10 км {снег} 10/9 120 м
[St]
+4.5 +4.1 97 0 0 по сезону 1014.3 968.8 1 8.0
З 3 35 км 10/8 300 м
[]
+4.4 +3.5 94 +1 +1 тепло 1014.9 969.4
З 4 12 км слаб. морось 10/3 300 м
[]
+4.3 +3.7 96 -0 -0 тепло 1015.4 969.8
З 3
{7}
15 км 9/9 450 м
[Cu Sc]
+4.0 +3.3 95 0 0 по сезону 1015.8 970.2
З 3 25 км 9/9 1500 м
[Sc]
+3.3 +2.6 95 -1 -1 по сезону 1016.3 970.5
З 3 25 км 9/9 1500 м
[Sc]
+3.2 +2.3 94 -1 -1 тепло 1016.5 970.7
З 4
{7}
25 км 9/9 210 м
[Sc]
+3.1 +2.2 94 -2 -2 по сезону 1016.9 971.1 +0.4 2
З 4 10 км 6/3 100 м
[Cu hum]
+2.6 +1.7 94 -2 -2 по сезону 1017.4 971.5
З 3 12 км 4/1 100 м
[Sc]
+2.4 +1.7 95 -2 -2 тепло 1017.9 971.9
ЮЗ 2
{6}
10 км 5/5 120 м
[Sc Ci fib]
+2.9 +1.9 93 -0 0 по сезону 1018.1 972.2
З 2 12 км 8/3 100 м
[Cu med, cong]
+4.3 +2.2 86 +2 +2 тепло 1018.6 972.9
З 3 18 км 9/3 100 м
[Cu med, cong]
+3.6 +1.5 86 -0 +1 тепло 1019.1 973.2
С 2
{6}
25 км 9/9 540 м
[Cu Sc]
+4.5 +1.0 78 +2 +3 по сезону 1018.8 973.1
З 1 30 км 6/3 600 м
[Cb calv]
+4.8 +1.1 77 +4 +5 тепло 1018.8 973.1
ЮЗ 3 35 км 3/1 600 м
[Cu Sc]
+4.9 +1.2 77 +2 +2 тепло 1018.6 973.0
Ю 1
{5}
35 км 8/8 500 м
[Cu Sc]
+4.1 +1.5 83 +3 +3 по сезону 1018.8 973.0
З 3 30 км в посл. час крупа {дождь} 8/1 300 м
[Cu Sc]
+3.9 +1.6 85 0 0 по сезону 1019.1 973.3
З 3 30 км 9/1 1000 м
[Cu Sc]
+3.2 +1.6 89 -1 -1 тепло 1019.8 973.8
З 3
{7}
25 км {ливн. осадки} 1/1 1380 м
[Sc]
+2.3 +1.3 93 -2 -2 по сезону 1019.9 973.8 +6.1
З 3 15 км 1/1 1000 м
[Sc]
+0.9 +0.5 97 -4 -4 по сезону 1020.5 974.1
СЗ 2 8000 м ясно -0.1 -0.4 98 -4 -4 по сезону 1020.5 974.0
нст 1
{5}
4000 м дымка ясно -0.6 -0.9 98 -3 -3 прохладно 1020.7 974.1
3000 м дымка ясно -1.0 -1.4 97 1020.9 974.2
СВ 3 500 м переохл. туман 6/6 <50 м
[St]
-0.4 -0.4 100 -5 -5 по сезону 1020.7 974.1
СВ 3
{7}
800 м переохл. туман 6/6 30 м
[St]
-1.2 -1.2 100 -6 -6 холодно 1020.5 973.8
СВ 4 100 м туман н/о -1.5 -1.5 100 -8 -8 прохладно 1020.4 973.6
СВ 4 100 м туман н/о -1.9 -1.9 100 -8 -8 по сезону 1020.1 973.3
СВ 4
{5}
100 м переохл. туман ?/? -2.2 -2.2 100 -8 -8 очень
холодно
1019.9 973.0
СВ 3 100 м переохл. туман н/о -1.9 -1.9 100 -7 -7 прохладно 1019.7 972.9
СВ 4 100 м переохл. туман н/о -1.7 -1.7 100 -8 -8 по сезону 1019.6 972.8
СВ 4
{5}
800 м переохл. туман 6/6 30 м
[St]
-1.5 -1.5 100 -8 -8 очень
холодно
1019.1 972.4 -2.3
СВ 4 100 м переохл. туман н/о -1.6 -1.6 100 -8 -8 прохладно 1019.0 972.3
СВ 5 300 м переохл. туман н/о -1.3 -1.3 100 -8 -8 по сезону 1018.8 972.1
СВ 4
{6}
200 м переохл. туман 8/8 <50 м
[St]
-0.9 -0.9 100 -7 -7 очень
холодно
1018.4 971.8
СВ 5 300 м переохл. туман 10/8 <50 м
[St]
-0.5 -0.5 100 -7 -7 прохладно 1018.0 971.5
СВ 6 300 м туман н/о +0.2 +0.2 100 -7 -7 по сезону 1017.5 971.1
В 3
{8}
3000 м в посл. час туман 10/10 <50 м
[St]
+0.9 +0.9 100 -4 -3 холодно 1016.9 970.7
В 2 6000 м 9/3 100 м
[Cu Sc]
+1.9 +1.5 97 -2 -1 по сезону 1016.1 970.1
СВ 4 35 км 4/1 300 м
[Cu Sc]
+2.6 +0.8 88 -2 -2 по сезону 1015.5 969.6
СВ 5
{7}
25 км 4/3 360 м
[Sc Ci fib]
+2.8 +0.5 85 -3 -2 прохладно 1015.1 969.3
СВ 4 25 км 1/1 300 м
[Sc]
+0.9 -0.6 90 -4 -4 по сезону 1015.0 968.9
СВ 4 20 км 1/0
[]
+1.4 -0.2 89 -4 -4 по сезону 1014.6 968.6
СВ 4
{7}
15 км 1/0
[Ci fib]
+0.7 -0.9 89 -5 -5 холодно 1014.4 968.3 +3.2
СВ 3 15 км ясно +0.1 -1.2 91 -5 -5 по сезону 1014.3 968.1
СВ 5 10 км 1/0
[]
-0.2 -1.3 92 -6 -6 по сезону 1014.2 967.9
СВ 4
{6}
8000 м 8/8 210 м
[Sc Ci fib]
-1.0 -1.6 96 -7 -7 холодно 1014.0 967.6
В 3 7000 м 9/9 100 м
[St]
-0.2 -0.8 96 -5 -5 по сезону 1013.4 967.2
В 2 5000 м 9/9 100 м
[St]
0.0 -0.6 96 -4 -4 по сезону 1013.1 966.9
В 3
{6}
5000 м дымка 10 баллов -0.2 -0.8 96 -5 -5 холодно 1012.8 966.6
В 2 5000 м дымка 10/10 100 м
[]
-0.1 -0.7 96 -4 -4 по сезону 1012.4 966.2
В 2 3700 м дымка 10/8 100 м
[]
+0.1 -0.5 96 -4 -4 по сезону 1012.2 966.1
В 3
{6}
3500 м дымка 9/9 150 м
[St]
+0.3 -0.3 96 -5 -5 прохладно 1011.8 965.7
ЮВ 3 4000 м дымка 9/9 100 м
[St]
+0.4 -0.2 96 -4 -4 по сезону 1011.4 965.4
В 3 3700 м дымка 10/9 100 м
[St]
+0.5 -0.1 96 -4 -4 по сезону 1011.0 965.0
ЮВ 3
{6}
3500 м дымка 10/10 120 м
[St]
+0.6 0.0 96 -4 -4 прохладно 1011.0 965.0 -1.1
ЮВ 3 2000 м дымка 10/3 <50 м
[St]
+0.7 +0.3 97 -4 -4 по сезону 1010.9 964.9
В 2 1600 м дымка 10/5 <50 м
[St]
+0.9 +0.5 97 -3 -3 по сезону 1010.8 964.9
ЮВ 2
{5}
1100 м дымка 10/10 30 м
[St]
+1.1 +0.8 98 -3 -2 прохладно 1010.6 964.7
В 2 1100 м дымка 10/5 <50 м
[St]
+1.4 +1.1 98 -2 -2 по сезону 1010.5 964.7
В 2 1800 м дымка 10/5 50 м
[St]
+1.9 +1.5 97 -2 -1 по сезону 1009.9 964.2
ЮВ 3
{5}
2000 м дымка 10/10 90 м
[St]
+2.7 +2.0 95 -2 -1 прохладно 1009.3 963.7
ЮВ 2 3000 м дымка 10/9 100 м
[St]
+3.4 +2.4 93 0 0 по сезону 1008.6 963.2
ЮВ 3 4500 м дымка 10/8 100 м
[St]
+3.8 +2.6 92 -0 0 тепло 1008.1 962.8
ЮВ 3
{5}
6000 м 9/5 150 м
[St Ac trans Ci fib]
+4.3 +2.8 90 +1 +1 по сезону 1008.0 962.8
В 2 6000 м 8/0
[]
+3.1 +2.2 94 -0 -0 по сезону 1008.1 962.7
СВ 3 4500 м дымка 6/0
[]
+2.4 +1.8 96 -2 -2 по сезону 1008.2 962.6
СВ 2
{5}
4000 м дымка 5/0
[Ac trans Ci sp]
+2.2 +1.6 96 -1 -1 по сезону 1008.2 962.6 +4.8
В 3 5000 м дымка 5/0 2000 м
[]
+2.0 +1.6 97 -2 -2 по сезону 1008.4 962.8
В 2 5000 м дымка 8/4 1000 м
[Sc]
+2.8 +2.2 96 -1 -1 тепло 1008.1 962.6
нст 1
{3}
5000 м дымка 6/6 1200 м
[Sc]
+2.9 +2.3 96 +1 +1 по сезону 1008.1 962.6
ЮВ 2 4000 м дымка 9/9 1000 м
[Sc]
+3.3 +2.7 96 0 0 по сезону 1008.0 962.6
В 2 6000 м 9/9 1000 м
[Sc]
+3.4 +2.7 95 0 0 тепло 1007.6 962.2
ЮВ 2
{4}
6000 м 9/9 1050 м
[Sc]
+3.5 +2.8 95 0 0 по сезону 1007.4 962.1
ЮВ 2 5000 м слаб. морось {дождь, дымка} 9/3 1000 м
[]
+3.6 +3.0 96 +1 +1 тепло 1007.4 962.1
ЮВ 2 4000 м слаб. морось {дождь, дымка} 10/9 600 м
[]
+3.7 +3.3 97 +1 +1 тепло 1007.5 962.2
Ю 4
{6}
4000 м в посл. час дождь 9/9 90 м
[Sc]
+4.5 +4.1 97 0 0 по сезону 1007.2 962.0
Ю 3 н/о 10/1 50 м
[]
+4.7 +4.1 96 +1 +1 тепло 1007.2 962.1
Ю 4 7000 м 9/9 200 м
[St]
+5.0 +4.4 96 +1 +1 тепло 1007.3 962.2
Ю 3
{6}
12 км {дождь} 9/9 180 м
[Sc]
+5.1 +4.4 95 +1 +1 по сезону 1007.4 962.3 +1.8 0.5
Ю 3 15 км 10/3 200 м
[St]
+5.2 +4.5 95 +2 +2 тепло 1007.3 962.3
ЮВ 3 20 км 9/5 200 м
[St]
+5.1 +4.4 95 +1 +1 тепло 1007.7 962.6
ЮВ 3
{5}
25 км 9/9 240 м
[St]
+5.6 +4.7 94 +2 +2 по сезону 1007.7 962.7
ЮВ 4 25 км 9/9 200 м
[St]
+5.8 +4.6 92 +2 +2 тепло 1007.2 962.3
ЮВ 4 30 км 9/9 200 м
[St]
+6.5 +5.0 90 +3 +3 тепло 1006.7 961.9
ЮВ 4
{7}
30 км 8/1 300 м
[St Ci fib]
+7.7 +5.5 86 +4 +5 по сезону 1005.6 961.0
ЮВ 4 30 км 8/1 300 м
[Cu hum]
+8.0 +4.8 80 +5 +5 тепло 1004.9 960.4
В 5
{8}
30 км 6/0
[Ac trans Ci sp]
+7.6 +4.8 82 +4 +4 по сезону 1003.6 959.1
В 6 30 км 4/1 600 м
[Sc]
+6.4 +3.7 83 +2 +2 по сезону 1003.6 958.9
В 5 25 км 5/0 2000 м
[]
+6.8 +3.8 81 +3 +3 тепло 1003.1 958.5
В 4 20 км 6/0
[]
+4.7 +3.1 89 0 0 по сезону 1002.8 957.9 +8.4
СВ 6 13 км 3/3 1500 м
[Sc]
+4.1 +2.8 91 -1 -1 по сезону 1002.6 957.6
В 6 10 км 3/0
[]
+3.1 +2.1 93 -3 -3 по сезону 1002.1 956.9
Местоположение метеостанции Люксембург (Люксембург): широта 49.62 долгота 6.20 высота над уровнем моря 376 м.
В архиве по умолчанию представлена погода в Люксембурге за последнюю неделю. Архивные данные за месяц целиком и за предыдущие месяцы, начиная с января 2011 года, Вы можете получить, выбрав интересующий диапазон дат из раскрывающегося списка и нажав кнопку "Найти!".
*Определитесь, кто Вы:
Внимание! Время в таблицах - всемирное. Для получения местного времени необходимо прибавить поправку, которая равна 1 ч.
Смотрите также архив погоды в соседних городах и на ближайших метеорологических станциях:
Партнеры нашего сайта:      
Пояснения к столбцам:
  • Ветер - указаны скорость ветра в м/с - средняя за 10 мин, порывы в срок и между сроками (в фигурных скобках) и направление, откуда дует ветер: С - северный,
  • СВ - северо-восточный, В - восточный, ЮВ - юго-восточный, Ю - южный, ЮЗ - юго-западный, З - западный, СЗ - северо-западный.
  • Видимость - горизонтальная дальность видимости в метрах или километрах. При видимости от 1 до 10 км при отсутствии осадков обычно наблюдается дымка, при ухудшении видимости до 1 км и менее - туман. В сухую погоду видимость может ухудшаться дымом, пылью или мглою.
  • Явления - указаны атмосферные явления, наблюдавшиеся в срок или в последний час перед сроком; фигурными скобками обозначены явления, наблюдавшиеся между сроками (за 1-3 часа до срока); квадратными скобками обозначены град или гололедные отложения с указанием их диаметра в мм.
  • Облачность - указаны через наклонную черту общая и нижняя облачность в баллах и высота нижней границы облаков в метрах; квадратными скобками обозначены формы облаков: Ci - перистые, Cs - перисто-слоистые, Cc - перисто-кучевые, Ac - высококучевые, As - высокослоистые, Sc - слоисто-кучевые, Ns - слоисто-дождевые, Cu - кучевые, Cb - кучево-дождевые. Подробнее классификацию облаков см. в Атласе облаков (PDF).
  • T - Температура воздуха - температура, измеренная на высоте 2 м над землей.
  • Td - Температура точки росы - температура, при понижении до которой содержащийся в воздухе водяной пар достигнет насыщения.
  • f - Относительная влажность воздуха - влажноcть воздуха, измеренная на высоте 2 м над землей.
  • Te - Эффективная температура - температура, которую ощущает одетый по сезону человек в тени. Характеристика душности погоды. При расчете учитывается влияние влажности воздуха и скорости ветра на теплоощущения человека.
  • Tes - Эффективная температура на солнце - температура, которую ощущает человек, с поправкой на солнечный нагрев. Характеристика знойности погоды. Зависит от высоты солнца над горизонтом, облачности и скорости ветра. Ночью, в пасмурную погоду, а также при ветре 12 м/с и более поправка равна нулю.
  • P - Атмосферное давление - приведенное к уровню моря атмосферное давление.
  • Po - Атмосферное давление - измеренное на уровне метеостанции атмосферное давление.
  • Tmin - Минимальная температура - минимум температуры воздуха на высоте 2 м над землей.
  • Tmax - Максимальная температура - максимум температуры воздуха на высоте 2 м над землей.
  • R - Количество осадков - Количество выпавших осадков за период времени, мм. При наведении курсора мыши на число - период времени, за который выпало указанное количество осадков.
  • R24 - Количество осадков - Количество выпавших осадков за 24 часа, мм.
  • S - Снежный покров - Высота снежного покрова, см. При наведении курсора мыши на число - состояние снежного покрова и степень покрытия местности в баллах.